This demonstration page uses our WeatherBlox Daily Observations layout. Learn more.

Left ArrowRight Arrow

47.50024, -111.30081

Hourly Observations for May 3, 2017

Temp ( °F °C ) Dew Point ( °F °C ) Humidity (%) Winds ( mph kmh ) Pressure ( in mb ) Visibility ( mi km ) Precip ( " mm )
12:53 am 00:53 Clear 34 1.1 30 -1.1 85 85 SSW 10 17 30.27 1025 10 16 0.00 0.00
1:53 am 01:53 Clear 32 0 27 -2.8 82 82 SW 10 17 30.27 1025 10 16 0.00 0.00
2:53 am 02:53 Clear 34 1.1 27 -2.8 76 76 SSW 12 19 30.25 1024 10 16 0.00 0.00
3:53 am 03:53 Clear 33 0.6 26 -3.3 75 75 SSW 10 17 30.25 1025 10 16 0.00 0.00
4:53 am 04:53 Clear 34 1.1 26 -3.3 73 73 SSW 14 22 30.25 1024 10 16 0.00 0.00
5:53 am 05:53 Clear 33 0.6 25 -3.9 72 72 SSW 10 17 30.25 1024 10 16 0.00 0.00
6:53 am 06:53 Sunny 37 2.8 27 -2.8 67 67 SSW 10 17 30.23 1024 10 16 0.00 0.00
7:53 am 07:53 Sunny 43 6.1 29 -1.7 58 58 SSW 9 15 30.23 1024 10 16 0.00 0.00
8:53 am 08:53 Sunny 48 8.9 29 -1.7 48 48 SSW 13 20 30.22 1023 10 16 0.00 0.00
9:53 am 09:53 Sunny 52 11.1 29 -1.7 41 41 WSW 15 24 30.20 1023 10 16 0.00 0.00
10:53 am 10:53 Sunny 55 12.8 27 -2.8 34 34 SW 15 24 30.19 1022 10 16 0.00 0.00
11:53 am 11:53 Sunny 58 14.4 27 -2.8 31 31 SW 17 28 30.18 1022 10 16 0.00 0.00
12:53 pm 12:53 Sunny 62 16.7 28 -2.2 28 28 SW 18 30 30.14 1021 10 16 0.00 0.00
1:53 pm 13:53 Sunny 66 18.9 29 -1.7 25 25 SW 20 31 30.10 1019 10 16 0.00 0.00
2:53 pm 14:53 Sunny 68 20 29 -1.7 23 23 WSW 22 35 30.07 1018 10 16 0.00 0.00
3:53 pm 15:53 Sunny 69 20.6 31 -0.6 24 24 SW 17 28 30.06 1018 10 16 0.00 0.00
4:13 pm 16:13 Sunny 71 21.7 32 0 24 24 W 18 30 29.88 1012 10 16 0.00 0.00
4:53 pm 16:53 Sunny 71 21.7 33 0.6 25 25 W 16 26 30.04 1017 10 16 0.00 0.00
5:53 pm 17:53 Sunny 71 21.7 34 1.1 26 26 NW 21 33 30.05 1018 10 16 0.00 0.00
6:53 pm 18:53 Sunny 66 18.9 35 1.7 32 32 W 18 30 30.05 1018 10 16 0.00 0.00
7:53 pm 19:53 Sunny 65 18.3 35 1.7 33 33 W 15 24 30.06 1018 10 16 0.00 0.00
8:53 pm 20:53 Mostly Clear 57 13.9 38 3.3 49 49 W 13 20 30.09 1019 10 16 0.00 0.00
9:53 pm 21:53 Clear 52 11.1 38 3.3 59 59 WSW 8 13 30.12 1020 10 16 0.00 0.00
10:53 pm 22:53 Clear 48 8.9 38 3.3 68 68 W 10 17 30.13 1020 10 16 0.00 0.00
11:53 pm 23:53 Clear 43 6.1 37 2.8 80 80 WSW 9 15 30.14 1021 10 16 0.00 0.00

Powered by AerisWeather